Regional Weather Roundup
Issued by NWS Northern Indiana

Home | Current Version | Previous Version | Graphics & Text | Print | Product List | Glossary On
Versions: 1 2 3 4 5 6 7 8 9 10 11 12 13 14 15 16 17 18 19 20 21 22 23 24 25 26 27 28 29 30 31 32 33 34 35 36 37 38 39 40 41 42 43 44 45 46 47 48 49 50
000
ASUS43 KIWX 211610
RWRIWX

KIWX WEATHER ROUNDUP
NATIONAL WEATHER SERVICE NORTHERN INDIANA
1200 PM EDT TUE OCT 21 2014

NOTE: "FAIR" INDICATES FEW OR NO CLOUDS BELOW 12,000 FEET WITH NO
SIGNIFICANT WEATHER AND/OR OBSTRUCTIONS TO VISIBILITY.

* THESE STATIONS ARE NOT UNDER NWS QUALITY CONTROL. THEY ALSO MAY NOT
  REPORT WEATHER SUCH AS PRECIPITATION OR FOG.

INZ001>027-211700-
NORTHERN INDIANA

CITY           SKY/WX    TMP DP  RH WIND       PRES   REMARKS
GARY*          CLOUDY    52  45  76 N14G28    30.15R
VALPARAISO     LGT RAIN  50  47  89 N9        30.13R
MICHIGAN CITY* CLOUDY    50  43  76 NE6       30.12S
LAPORTE*       DRIZZLE   51  49  94 N10       30.12R
KNOX*          CLOUDY    50  46  87 N9        30.11R
SOUTH BEND     PTSUNNY   51  44  77 N13       30.12R
ELKHART*       CLOUDY    50  41  71 N8        30.10R
GOSHEN         CLOUDY    50  43  77 N10       30.09R
MONTICELLO*    CLOUDY    51  43  72 N12       30.11S
LOGANSPORT*    CLOUDY    52  41  66 N10G18    30.11R
ROCHESTER*     CLOUDY    54  45  71 N9        30.10S
WARSAW*        CLOUDY    50  43  76 N9        30.09S
ANGOLA*        CLOUDY    48  36  61 N9        30.07R
FORT WAYNE     CLOUDY    50  43  77 NW12      30.08R
HUNTINGTON*    CLOUDY    49  43  78 N8        30.08R
PERU/GRISSOM   PTSUNNY   52  46  81 N15       30.09R
MARION*        CLOUDY    51  41  68 N13       30.09R

$$
INZ028>050-211700-
CENTRAL INDIANA

CITY           SKY/WX    TMP DP  RH WIND       PRES   REMARKS
LAFAYETTE      MOSUNNY   55  42  61 N12G20    30.12R
KOKOMO*        CLOUDY    54 N/A N/A N13G22    30.09R
MUNCIE*        CLOUDY    52  42  69 N16G22    30.07R
INDIANAPOLIS   PTSUNNY   52  44  74 N13       30.10R

$$
MIZ043>046-050>051-056>058-064>065-071>073-077>080-211700-
SOUTHWEST LOWER MICHIGAN

CITY           SKY/WX    TMP DP  RH WIND       PRES   REMARKS
BATTLE CREEK   LGT RAIN  47  40  76 N15       30.10R
BENTON HARBOR  PTSUNNY   50  42  74 NE9G17    30.12R
COLDWATER*     CLOUDY    49  44  81 N10G16    30.08R
HILLSDALE*     CLOUDY    49  42  78 N15G21    30.05R
HOLLAND        CLOUDY    51  39  63 N7        30.14R
GRAND RAPIDS   CLOUDY    48  41  76 N15       30.12R
KALAMAZOO      CLOUDY    49  44  83 N10       30.10R
STURGIS*       LGT RAIN  46  45  93 N8        30.08R
THREE RIVERS*  LGT RAIN  48  45  88 NE8       30.10R

$$
OHZ001>008-015>018-024>025-211700-
NORTHWEST OHIO

CITY           SKY/WX    TMP DP  RH WIND       PRES   REMARKS
WAUSEON*       CLOUDY    50  43  76 N9G20     30.04R
DEFIANCE       CLOUDY    52  44  74 N15       30.05R
FINDLAY        CLOUDY    50  46  86 NW13      30.01R
TOLEDO EXPRESS CLOUDY    48  43  82 N14G23    30.03R
TOLEDO METCALF CLOUDY    50  42  74 N8        30.03S
LIMA           CLOUDY    50  44  80 NW12      30.03R

$$
AND FOR LAKE MICHIGAN COASTAL AND OPEN LAKE BUOY OBSERVATIONS

STATION/POSITION TEMP    WIND        PRES    VSBY  WAVE
                 AIR SEA DIR/SP/G                  HT/PER
                 (F)     (DEG/KT/KT) (MB)    (MI)  (FT/S)
CALUMET HARBOR    49     330/ 10/ 18 1019.8R
MICHIGAN CITY     51     340/ 24/ 27   N/A
SAINT JOSEPH      52                 1020.0F
SOUTH LAKE BUOY   50 54  360/ 19/ 23 1020.8R         7/ 7

$$
&&



USA.gov is the U.S. government's official web portal to all federal, state and local government web resources and services.